Location: Casilda
(33.0440°S, 61.1680°W)
Time: 11:03:35
(UTC-03:00)

ISS - Pass Details

Date: 08 April 2021
Orbit: 418 x 422 km, 51.6° (Epoch: 11 April)

Event Time Altitude Azimuth Distance (km) Brightness Sun altitude
Exits shadow 06:27:07 - 208° (SSW) 2,126 -0.5 -12.2°
Reaches altitude 10° 06:29:01 10° 191° (S) 1,528 -1.0 -11.8°
Maximum altitude 06:31:22 17° 147° (SSE) 1,159 -1.1 -11.4°
Drops below altitude 10° 06:33:43 10° 104° (ESE) 1,520 0.5 -10.9°
Sets 06:36:20 0° 83° (E) 2,380 2.3 -10.3°
